Regional Weather Roundup
Issued by NWS

Home | Current Version | Previous Version | Graphics & Text | Print | Product List | Glossary Off
Versions: 1 2 3 4 5 6 7 8 9 10 11 12 13 14 15 16 17 18 19 20 21 22 23 24 25 26 27 28 29 30 31 32 33 34 35 36 37 38 39 40 41 42 43 44 45 46 47 48 49 50

000
ASUS43 KIND 060459
RWRIN

WEATHER ROUNDUP FOR INDIANA
NATIONAL WEATHER SERVICE INDIANAPOLIS IN
100 AM EDT MON JUL 06 2015

NOTE: "FAIR" INDICATES FEW OR NO CLOUDS BELOW 12,000 FEET WITH NO
SIGNIFICANT WEATHER AND/OR OBSTRUCTIONS TO VISIBILITY.

* - STATION DOES NOT REPORT WEATHER SUCH AS PRECIPITATION OR FOG.

+ - STATION NOT QUALITY CONTROLLED BY THE NATIONAL WEATHER SERVICE.
    USE DATA WITH CAUTION...ESPECIALLY DEWPOINT AND RELATIVE
    HUMIDITY OBSERVATIONS.

INZ001>003-010>013-019-020-060600-
NORTHWEST INDIANA

CITY           SKY/WX    TMP DP  RH WIND       PRES   REMARKS
RENSSELAER +   CLEAR     68  64  88 CALM      30.04F

$$

LMZ046-743>745-060600-
SOUTHERN LAKE MICHIGAN

STATION/POSITION TIME  TEMP    WIND        PRES    WAVE
                       AIR SEA DIR/SP/G            HT
                 (UTC) (F)     (DEG/KT/KT) (MB)    (FT)
BURNS HARBOR     0400   74     180/  5/  8 1017.3S
MICHIGAN CITY    0400   74     140/  8/ 11   N/A
5NW MICH CITY    0400   69 67  180/  6/  8   N/A     0

$$

INZ004-005-014>016-021>024-060600-
NORTH CENTRAL INDIANA

CITY           SKY/WX    TMP DP  RH WIND       PRES   REMARKS
GOSHEN         CLEAR     64  61  90 CALM      30.06S
SOUTH BEND     CLEAR     70  61  73 S6        30.04F

$$

INZ006>009-017-018-025>027-060600-
NORTHEAST INDIANA

CITY           SKY/WX    TMP DP  RH WIND       PRES   REMARKS
ANGOLA *+        N/A     64  61  88 SE5       30.07F
FORT WAYNE     PTCLDY    64  62  93 S3        30.08S

$$

INZ028-029-035-036-043>045-051>053-060600-
WEST CENTRAL INDIANA

CITY           SKY/WX    TMP DP  RH WIND       PRES   REMARKS
CRAWFORDSVL +  CLEAR     65  63  93 SE6       30.07S
GREENCASTLE +  CLEAR     66  61  82 CALM      30.08S
LAFAYETTE      CLEAR     69  64  84 S5        30.04F
TERRE HAUTE    PTCLDY    71  67  87 SE5       30.05F

$$

INZ030>032-037>040-046>048-054>057-064-065-060600-
CENTRAL INDIANA

CITY           SKY/WX    TMP DP  RH WIND       PRES   REMARKS
INDIANAPOLIS   CLEAR     69  62  78 S8        30.06S
-EAGLE CREEK   CLEAR     67  62  84 CALM      30.07S
KOKOMO *+      CLEAR     66  63  88 S3        30.07S
MT COMFORT *+  CLEAR     61 N/A N/A S3        30.09S
SHELBYVILLE    CLEAR     66  63  90 S3        30.08F

$$

INZ033-034-041-042-049-050-058-059-060600-
EAST CENTRAL INDIANA

CITY           SKY/WX    TMP DP  RH WIND       PRES   REMARKS
MUNCIE         PTCLDY    68  61  78 S3        30.09S

$$

INZ060-061-067>069-081>083-085>088-060600-
SOUTHWEST INDIANA

CITY           SKY/WX    TMP DP  RH WIND       PRES   REMARKS
EVANSVILLE     CLEAR     73  69  87 CALM      30.05F FOG
HUNTINGBURG *+ CLEAR     70  66  88 SE5       30.07F

$$

INZ062-063-066-070>080-084-089>092-060600-
SOUTH CENTRAL AND SOUTHEAST INDIANA

CITY           SKY/WX    TMP DP  RH WIND       PRES   REMARKS
BLOOMINGTON    CLEAR     68  66  93 S5        30.08F
MADISON *+     CLEAR     63  61  94 CALM      30.11F

$$



USA.gov is the U.S. government's official web portal to all federal, state and local government web resources and services.